Time,TemperatureF,DewpointF,PressureIn,WindDirection,WindDirectionDegrees,WindSpeedMPH,WindSpeedGustMPH,Humidity,HourlyPrecipIn,Conditions,Clouds,dailyrainin,SoftwareType,DateUTC
2013-03-01 00:05:00,34.9,23.6,30.23,North,0,0.0,0.0,63,0.00,,,0.00,Wunderground v.1.15,2013-03-01 06:05:00,
2013-03-01 00:10:00,34.9,23.6,30.23,North,0,0.0,0.0,63,0.00,,,0.00,Wunderground v.1.15,2013-03-01 06:10:00,
2013-03-01 00:20:00,34.9,23.2,30.23,North,0,0.0,0.0,62,0.00,,,0.00,Wunderground v.1.15,2013-03-01 06:20:00,
2013-03-01 00:25:00,34.9,23.6,30.23,North,0,0.0,0.0,63,0.00,,,0.00,Wunderground v.1.15,2013-03-01 06:25:00,
2013-03-01 00:35:00,34.7,23.4,30.23,North,0,0.0,0.0,63,0.00,,,0.00,Wunderground v.1.15,2013-03-01 06:35:00,
2013-03-01 00:40:00,34.6,23.3,30.23,North,0,0.0,0.0,63,0.00,,,0.00,Wunderground v.1.15,2013-03-01 06:40:00,
2013-03-01 00:50:00,34.6,23.7,30.23,North,0,0.0,0.0,64,0.00,,,0.00,Wunderground v.1.15,2013-03-01 06:50:00,
2013-03-01 00:55:00,34.6,23.7,30.23,North,0,0.0,0.0,64,0.00,,,0.00,Wunderground v.1.15,2013-03-01 06:55:00,
2013-03-01 01:05:00,34.4,23.5,30.24,North,0,0.0,0.0,64,0.00,,,0.00,Wunderground v.1.15,2013-03-01 07:05:00,
2013-03-01 01:10:00,34.4,23.8,30.23,North,0,0.0,0.0,65,0.00,,,0.00,Wunderground v.1.15,2013-03-01 07:10:00,
2013-03-01 01:20:00,34.3,23.7,30.24,North,0,0.0,0.0,65,0.00,,,0.00,Wunderground v.1.15,2013-03-01 07:20:00,
2013-03-01 01:25:00,34.3,23.7,30.24,North,0,0.0,0.0,65,0.00,,,0.00,Wunderground v.1.15,2013-03-01 07:25:00,
2013-03-01 01:35:00,34.3,23.7,30.23,North,0,0.0,0.0,65,0.00,,,0.00,Wunderground v.1.15,2013-03-01 07:35:00,
2013-03-01 01:40:00,34.1,23.6,30.24,North,0,0.0,0.0,65,0.00,,,0.00,Wunderground v.1.15,2013-03-01 07:40:00,
2013-03-01 01:50:00,34.0,23.8,30.23,North,0,0.0,0.0,66,0.00,,,0.00,Wunderground v.1.15,2013-03-01 07:50:00,
2013-03-01 01:55:00,34.0,24.2,30.23,North,0,0.0,0.0,67,0.00,,,0.00,Wunderground v.1.15,2013-03-01 07:55:00,
2013-03-01 02:05:00,34.0,24.2,30.23,North,0,0.0,0.0,67,0.00,,,0.00,Wunderground v.1.15,2013-03-01 08:05:00,
2013-03-01 02:10:00,34.1,24.3,30.23,North,0,0.0,0.0,67,0.00,,,0.00,Wunderground v.1.15,2013-03-01 08:10:00,
2013-03-01 02:20:00,34.1,24.6,30.23,North,0,0.0,0.0,68,0.00,,,0.00,Wunderground v.1.15,2013-03-01 08:20:00,
2013-03-01 02:25:00,34.1,24.3,30.22,North,0,0.0,0.0,67,0.00,,,0.00,Wunderground v.1.15,2013-03-01 08:25:00,
2013-03-01 02:35:00,34.1,24.3,30.23,North,0,0.0,0.0,67,0.00,,,0.00,Wunderground v.1.15,2013-03-01 08:35:00,
2013-03-01 02:40:00,34.1,24.3,30.23,North,0,0.0,0.0,67,0.00,,,0.00,Wunderground v.1.15,2013-03-01 08:40:00,
2013-03-01 02:50:00,34.1,23.9,30.23,North,0,0.0,0.0,66,0.00,,,0.00,Wunderground v.1.15,2013-03-01 08:50:00,
2013-03-01 02:55:00,34.3,24.5,30.23,North,0,0.0,0.0,67,0.00,,,0.00,Wunderground v.1.15,2013-03-01 08:55:00,
2013-03-01 03:05:00,34.4,24.6,30.23,North,0,0.0,0.0,67,0.00,,,0.00,Wunderground v.1.15,2013-03-01 09:05:00,
2013-03-01 03:10:00,34.7,24.1,30.23,North,0,0.0,0.0,65,0.00,,,0.00,Wunderground v.1.15,2013-03-01 09:10:00,
2013-03-01 03:20:00,35.0,24.0,30.23,North,0,0.0,0.0,64,0.00,,,0.00,Wunderground v.1.15,2013-03-01 09:20:00,
2013-03-01 03:25:00,35.0,24.4,30.23,North,0,0.0,0.0,65,0.00,,,0.00,Wunderground v.1.15,2013-03-01 09:25:00,
2013-03-01 03:35:00,35.0,24.4,30.23,North,0,0.0,0.0,65,0.00,,,0.00,Wunderground v.1.15,2013-03-01 09:35:00,
2013-03-01 03:40:00,35.0,24.0,30.23,North,0,0.0,0.0,64,0.00,,,0.00,Wunderground v.1.15,2013-03-01 09:40:00,
2013-03-01 03:50:00,34.7,23.8,30.23,North,0,0.0,0.0,64,0.00,,,0.00,Wunderground v.1.15,2013-03-01 09:50:00,
2013-03-01 03:55:00,34.6,23.3,30.24,North,0,0.0,0.0,63,0.00,,,0.00,Wunderground v.1.15,2013-03-01 09:55:00,
2013-03-01 04:05:00,34.1,23.2,30.24,North,0,0.0,0.0,64,0.00,,,0.00,Wunderground v.1.15,2013-03-01 10:05:00,
2013-03-01 04:10:00,34.0,23.1,30.24,North,0,0.0,0.0,64,0.00,,,0.00,Wunderground v.1.15,2013-03-01 10:10:00,
2013-03-01 04:20:00,33.5,22.6,30.25,North,0,0.0,0.0,64,0.00,,,0.00,Wunderground v.1.15,2013-03-01 10:20:00,
2013-03-01 04:25:00,33.4,22.9,30.25,North,0,0.0,0.0,65,0.00,,,0.00,Wunderground v.1.15,2013-03-01 10:25:00,
2013-03-01 04:35:00,32.9,22.4,30.24,North,0,0.0,0.0,65,0.00,,,0.00,Wunderground v.1.15,2013-03-01 10:35:00,
2013-03-01 04:40:00,32.8,22.3,30.24,North,0,0.0,0.0,65,0.00,,,0.00,Wunderground v.1.15,2013-03-01 10:40:00,
2013-03-01 04:50:00,32.5,22.8,30.24,North,0,0.0,0.0,67,0.00,,,0.00,Wunderground v.1.15,2013-03-01 10:50:00,
2013-03-01 04:55:00,32.4,22.3,30.24,North,0,0.0,0.0,66,0.00,,,0.00,Wunderground v.1.15,2013-03-01 10:55:00,
2013-03-01 05:05:00,31.9,21.8,30.25,North,0,0.0,0.0,66,0.00,,,0.00,Wunderground v.1.15,2013-03-01 11:05:00,
2013-03-01 05:10:00,31.6,21.9,30.25,North,0,0.0,0.0,67,0.00,,,0.00,Wunderground v.1.15,2013-03-01 11:10:00,
2013-03-01 05:20:00,31.2,21.9,30.25,North,0,0.0,0.0,68,0.00,,,0.00,Wunderground v.1.15,2013-03-01 11:20:00,
2013-03-01 05:25:00,30.9,21.6,30.25,North,0,0.0,0.0,68,0.00,,,0.00,Wunderground v.1.15,2013-03-01 11:25:00,
2013-03-01 05:35:00,30.6,21.6,30.25,North,0,0.0,0.0,69,0.00,,,0.00,Wunderground v.1.15,2013-03-01 11:35:00,
2013-03-01 05:40:00,30.3,21.3,30.25,North,0,0.0,0.0,69,0.00,,,0.00,Wunderground v.1.15,2013-03-01 11:40:00,
2013-03-01 05:50:00,30.1,21.5,30.25,North,0,0.0,0.0,70,0.00,,,0.00,Wunderground v.1.15,2013-03-01 11:50:00,
2013-03-01 05:55:00,30.0,21.4,30.25,North,0,0.0,0.0,70,0.00,,,0.00,Wunderground v.1.15,2013-03-01 11:55:00,
2013-03-01 06:05:00,29.8,21.5,30.27,North,0,0.0,0.0,71,0.00,,,0.00,Wunderground v.1.15,2013-03-01 12:05:00,
2013-03-01 06:10:00,29.8,21.5,30.27,North,0,0.0,0.0,71,0.00,,,0.00,Wunderground v.1.15,2013-03-01 12:10:00,
2013-03-01 06:20:00,29.8,21.5,30.27,North,0,0.0,0.0,71,0.00,,,0.00,Wunderground v.1.15,2013-03-01 12:20:00,
2013-03-01 06:25:00,29.8,21.5,30.27,North,0,0.0,0.0,71,0.00,,,0.00,Wunderground v.1.15,2013-03-01 12:25:00,
2013-03-01 06:35:00,29.8,21.9,30.27,North,0,0.0,0.0,72,0.00,,,0.00,Wunderground v.1.15,2013-03-01 12:35:00,
2013-03-01 06:40:00,29.7,21.8,30.27,North,0,0.0,0.0,72,0.00,,,0.00,Wunderground v.1.15,2013-03-01 12:40:00,
2013-03-01 06:50:00,29.8,22.2,30.27,North,0,0.0,0.0,73,0.00,,,0.00,Wunderground v.1.15,2013-03-01 12:50:00,
2013-03-01 06:55:00,30.0,22.4,30.27,North,0,0.0,0.0,73,0.00,,,0.00,Wunderground v.1.15,2013-03-01 12:55:00,
2013-03-01 07:05:00,30.1,22.5,30.29,North,0,0.0,0.0,73,0.00,,,0.00,Wunderground v.1.15,2013-03-01 13:05:00,
2013-03-01 07:10:00,30.3,22.7,30.28,North,0,0.0,0.0,73,0.00,,,0.00,Wunderground v.1.15,2013-03-01 13:10:00,
2013-03-01 07:20:00,30.4,23.1,30.28,North,0,0.0,0.0,74,0.00,,,0.00,Wunderground v.1.15,2013-03-01 13:20:00,
2013-03-01 07:25:00,30.6,23.3,30.28,North,0,0.0,0.0,74,0.00,,,0.00,Wunderground v.1.15,2013-03-01 13:25:00,
2013-03-01 07:35:00,31.0,23.7,30.28,North,0,0.0,0.0,74,0.00,,,0.00,Wunderground v.1.15,2013-03-01 13:35:00,
2013-03-01 07:40:00,31.3,24.0,30.29,North,0,0.0,0.0,74,0.00,,,0.00,Wunderground v.1.15,2013-03-01 13:40:00,
2013-03-01 07:50:00,32.1,25.1,30.28,North,0,0.0,0.0,75,0.00,,,0.00,Wunderground v.1.15,2013-03-01 13:50:00,
2013-03-01 07:55:00,32.5,25.5,30.29,North,0,0.0,0.0,75,0.00,,,0.00,Wunderground v.1.15,2013-03-01 13:55:00,
2013-03-01 08:05:00,33.8,26.1,30.29,North,0,0.0,0.0,73,0.00,,,0.00,Wunderground v.1.15,2013-03-01 14:05:00,
2013-03-01 08:10:00,34.7,26.9,30.29,North,0,0.0,0.0,73,0.00,,,0.00,Wunderground v.1.15,2013-03-01 14:10:00,
2013-03-01 08:20:00,36.6,28.1,30.30,North,0,0.0,0.0,71,0.00,,,0.00,Wunderground v.1.15,2013-03-01 14:20:00,
2013-03-01 08:25:00,37.9,28.6,30.30,North,0,0.0,0.0,69,0.00,,,0.00,Wunderground v.1.15,2013-03-01 14:25:00,
2013-03-01 08:35:00,39.9,27.9,30.30,North,0,0.0,0.0,62,0.00,,,0.00,Wunderground v.1.15,2013-03-01 14:35:00,
2013-03-01 08:40:00,40.8,27.6,30.30,North,0,0.0,0.0,59,0.00,,,0.00,Wunderground v.1.15,2013-03-01 14:40:00,
2013-03-01 08:50:00,42.5,25.1,30.30,North,0,0.0,0.0,50,0.00,,,0.00,Wunderground v.1.15,2013-03-01 14:50:00,
2013-03-01 08:55:00,43.8,24.9,30.30,North,0,0.0,0.0,47,0.00,,,0.00,Wunderground v.1.15,2013-03-01 14:55:00,
2013-03-01 09:05:00,46.7,25.4,30.30,North,0,0.0,0.0,43,0.00,,,0.00,Wunderground v.1.15,2013-03-01 15:05:00,
2013-03-01 09:10:00,48.2,24.4,30.30,North,0,0.0,0.0,39,0.00,,,0.00,Wunderground v.1.15,2013-03-01 15:10:00,
2013-03-01 09:20:00,49.8,25.8,30.29,North,0,0.0,0.0,39,0.00,,,0.00,Wunderground v.1.15,2013-03-01 15:20:00,
2013-03-01 09:25:00,50.5,24.5,30.29,North,354,0.0,0.0,36,0.00,,,0.00,Wunderground v.1.15,2013-03-01 15:25:00,
2013-03-01 09:35:00,51.9,23.7,30.28,North,359,0.0,0.0,33,0.00,,,0.00,Wunderground v.1.15,2013-03-01 15:35:00,
2013-03-01 09:40:00,52.5,26.9,30.28,North,357,0.0,0.0,37,0.00,,,0.00,Wunderground v.1.15,2013-03-01 15:40:00,
2013-03-01 09:50:00,53.3,24.9,30.28,North,357,0.0,0.0,33,0.00,,,0.00,Wunderground v.1.15,2013-03-01 15:50:00,
2013-03-01 09:55:00,53.9,24.7,30.27,North,357,0.0,0.0,32,0.00,,,0.00,Wunderground v.1.15,2013-03-01 15:55:00,
2013-03-01 10:05:00,55.0,24.1,30.27,East,88,0.0,0.0,30,0.00,,,0.00,Wunderground v.1.15,2013-03-01 16:05:00,
2013-03-01 10:10:00,55.4,23.6,30.27,East,90,0.0,0.0,29,0.00,,,0.00,Wunderground v.1.15,2013-03-01 16:10:00,
2013-03-01 10:20:00,56.9,24.1,30.26,ESE,109,0.0,0.0,28,0.00,,,0.00,Wunderground v.1.15,2013-03-01 16:20:00,
2013-03-01 10:25:00,57.6,23.8,30.25,ESE,109,0.0,0.0,27,0.00,,,0.00,Wunderground v.1.15,2013-03-01 16:25:00,
2013-03-01 10:35:00,59.0,24.1,30.25,ESE,109,0.0,0.0,26,0.00,,,0.00,Wunderground v.1.15,2013-03-01 16:35:00,
2013-03-01 10:40:00,59.6,25.5,30.25,South,172,0.0,0.0,27,0.00,,,0.00,Wunderground v.1.15,2013-03-01 16:40:00,
2013-03-01 10:50:00,60.7,23.7,30.25,SSW,202,0.0,0.0,24,0.00,,,0.00,Wunderground v.1.15,2013-03-01 16:50:00,
2013-03-01 10:55:00,61.2,25.1,30.24,SSW,203,0.0,0.0,25,0.00,,,0.00,Wunderground v.1.15,2013-03-01 16:55:00,
2013-03-01 11:05:00,61.8,23.6,30.24,SSW,199,0.0,0.0,23,0.00,,,0.00,Wunderground v.1.15,2013-03-01 17:05:00,
2013-03-01 11:10:00,62.4,24.1,30.24,SSW,199,0.0,0.0,23,0.00,,,0.00,Wunderground v.1.15,2013-03-01 17:10:00,
2013-03-01 11:20:00,63.2,23.7,30.24,SSW,205,1.0,7.0,22,0.00,,,0.00,Wunderground v.1.15,2013-03-01 17:20:00,
2013-03-01 11:25:00,63.4,23.8,30.24,SSW,205,1.0,7.0,22,0.00,,,0.00,Wunderground v.1.15,2013-03-01 17:25:00,
2013-03-01 11:35:00,64.0,26.4,30.23,SSW,206,0.0,1.0,24,0.00,,,0.00,Wunderground v.1.15,2013-03-01 17:35:00,
2013-03-01 11:40:00,64.3,24.6,30.23,SSW,206,0.0,0.0,22,0.00,,,0.00,Wunderground v.1.15,2013-03-01 17:40:00,
2013-03-01 11:50:00,64.7,24.9,30.22,SW,215,1.0,1.0,22,0.00,,,0.00,Wunderground v.1.15,2013-03-01 17:50:00,
2013-03-01 11:55:00,64.8,23.9,30.22,SW,215,0.0,1.0,21,0.00,,,0.00,Wunderground v.1.15,2013-03-01 17:55:00,
2013-03-01 12:05:00,65.6,24.6,30.21,SW,230,1.0,2.0,21,0.00,,,0.00,Wunderground v.1.15,2013-03-01 18:05:00,
2013-03-01 12:10:00,66.0,24.9,30.21,SW,234,1.0,1.0,21,0.00,,,0.00,Wunderground v.1.15,2013-03-01 18:10:00,
2013-03-01 12:20:00,66.4,24.1,30.20,SW,234,0.0,0.0,20,0.00,,,0.00,Wunderground v.1.15,2013-03-01 18:20:00,
2013-03-01 12:25:00,66.4,22.8,30.21,SW,236,1.0,1.0,19,0.00,,,0.00,Wunderground v.1.15,2013-03-01 18:25:00,
2013-03-01 12:35:00,66.9,24.5,30.20,West,265,2.0,2.0,20,0.00,,,0.00,Wunderground v.1.15,2013-03-01 18:35:00,
2013-03-01 12:40:00,67.8,24.0,30.19,West,268,2.0,3.0,19,0.00,,,0.00,Wunderground v.1.15,2013-03-01 18:40:00,
2013-03-01 12:50:00,67.1,24.6,30.19,North,0,3.0,5.0,20,0.00,,,0.00,Wunderground v.1.15,2013-03-01 18:50:00,
2013-03-01 12:55:00,65.8,22.3,30.19,North,0,2.0,5.0,19,0.00,,,0.00,Wunderground v.1.15,2013-03-01 18:55:00,
2013-03-01 13:05:00,65.8,22.3,30.18,North,10,3.0,5.0,19,0.00,,,0.00,Wunderground v.1.15,2013-03-01 19:05:00,
2013-03-01 13:10:00,65.6,23.4,30.18,North,8,2.0,2.0,20,0.00,,,0.00,Wunderground v.1.15,2013-03-01 19:10:00,
2013-03-01 13:20:00,66.8,24.4,30.18,NNW,332,2.0,2.0,20,0.00,,,0.00,Wunderground v.1.15,2013-03-01 19:20:00,
2013-03-01 13:25:00,67.1,23.4,30.18,NNW,330,1.0,2.0,19,0.00,,,0.00,Wunderground v.1.15,2013-03-01 19:25:00,
2013-03-01 13:35:00,66.8,24.4,30.16,North,350,1.0,2.0,20,0.00,,,0.00,Wunderground v.1.15,2013-03-01 19:35:00,
2013-03-01 13:40:00,67.1,24.6,30.16,NNW,342,1.0,1.0,20,0.00,,,0.00,Wunderground v.1.15,2013-03-01 19:40:00,
2013-03-01 13:50:00,66.8,23.2,30.16,North,352,1.0,3.0,19,0.00,,,0.00,Wunderground v.1.15,2013-03-01 19:50:00,
2013-03-01 13:55:00,67.3,24.8,30.15,NNE,20,1.0,3.0,20,0.00,,,0.00,Wunderground v.1.15,2013-03-01 19:55:00,
2013-03-01 14:05:00,68.3,25.6,30.14,WSW,251,3.0,13.0,20,0.00,,,0.00,Wunderground v.1.15,2013-03-01 20:05:00,
2013-03-01 14:10:00,69.1,26.3,30.14,West,260,2.0,2.0,20,0.00,,,0.00,Wunderground v.1.15,2013-03-01 20:10:00,
2013-03-01 14:20:00,68.4,23.2,30.14,North,352,2.0,2.0,18,0.00,,,0.00,Wunderground v.1.15,2013-03-01 20:20:00,
2013-03-01 14:25:00,68.3,24.4,30.13,North,349,2.0,2.0,19,0.00,,,0.00,Wunderground v.1.15,2013-03-01 20:25:00,
2013-03-01 14:35:00,67.8,24.0,30.13,NNE,21,2.0,6.0,19,0.00,,,0.00,Wunderground v.1.15,2013-03-01 20:35:00,
2013-03-01 14:40:00,67.3,24.8,30.13,NNW,333,2.0,2.0,20,0.00,,,0.00,Wunderground v.1.15,2013-03-01 20:40:00,
2013-03-01 14:50:00,66.8,24.4,30.13,NNW,344,2.0,4.0,20,0.00,,,0.00,Wunderground v.1.15,2013-03-01 20:50:00,
2013-03-01 14:55:00,66.1,23.8,30.13,North,0,2.0,4.0,20,0.00,,,0.00,Wunderground v.1.15,2013-03-01 20:55:00,
2013-03-01 15:05:00,67.1,25.8,30.13,NW,311,1.0,1.0,21,0.00,,,0.00,Wunderground v.1.15,2013-03-01 21:05:00,
2013-03-01 15:10:00,68.1,24.2,30.12,WSW,248,1.0,1.0,19,0.00,,,0.00,Wunderground v.1.15,2013-03-01 21:10:00,
2013-03-01 15:20:00,67.1,23.4,30.12,NE,44,2.0,5.0,19,0.00,,,0.00,Wunderground v.1.15,2013-03-01 21:20:00,
2013-03-01 15:25:00,67.4,24.9,30.11,West,268,1.0,5.0,20,0.00,,,0.00,Wunderground v.1.15,2013-03-01 21:25:00,
2013-03-01 15:35:00,67.3,23.6,30.11,WNW,289,3.0,5.0,19,0.00,,,0.00,Wunderground v.1.15,2013-03-01 21:35:00,
2013-03-01 15:40:00,67.1,23.4,30.11,NW,318,2.0,2.0,19,0.00,,,0.00,Wunderground v.1.15,2013-03-01 21:40:00,
2013-03-01 15:50:00,66.3,22.8,30.11,NW,326,1.0,1.0,19,0.00,,,0.00,Wunderground v.1.15,2013-03-01 21:50:00,
2013-03-01 15:55:00,66.1,22.6,30.11,WSW,250,2.0,2.0,19,0.00,,,0.00,Wunderground v.1.15,2013-03-01 21:55:00,
2013-03-01 16:05:00,66.0,24.9,30.11,NNW,330,1.0,2.0,21,0.00,,,0.00,Wunderground v.1.15,2013-03-01 22:05:00,
2013-03-01 16:10:00,65.6,20.9,30.10,NW,313,4.0,4.0,18,0.00,,,0.00,Wunderground v.1.15,2013-03-01 22:10:00,
2013-03-01 16:20:00,65.3,20.7,30.10,NW,309,2.0,2.0,18,0.00,,,0.00,Wunderground v.1.15,2013-03-01 22:20:00,
2013-03-01 16:25:00,65.2,23.1,30.10,WNW,285,1.0,2.0,20,0.00,,,0.00,Wunderground v.1.15,2013-03-01 22:25:00,
2013-03-01 16:35:00,65.2,23.1,30.10,WNW,282,2.0,5.0,20,0.00,,,0.00,Wunderground v.1.15,2013-03-01 22:35:00,
2013-03-01 16:40:00,65.0,22.9,30.10,NNW,339,3.0,3.0,20,0.00,,,0.00,Wunderground v.1.15,2013-03-01 22:40:00,
2013-03-01 16:50:00,64.2,22.2,30.10,NW,312,1.0,1.0,20,0.00,,,0.00,Wunderground v.1.15,2013-03-01 22:50:00,
2013-03-01 16:55:00,64.2,22.2,30.11,NW,313,1.0,2.0,20,0.00,,,0.00,Wunderground v.1.15,2013-03-01 22:55:00,
2013-03-01 17:05:00,64.3,19.8,30.11,NNW,332,3.0,3.0,18,0.00,,,0.00,Wunderground v.1.15,2013-03-01 23:05:00,
2013-03-01 17:10:00,64.3,21.1,30.12,North,354,4.0,4.0,19,0.00,,,0.00,Wunderground v.1.15,2013-03-01 23:10:00,
2013-03-01 17:20:00,63.9,19.5,30.12,NNW,339,2.0,2.0,18,0.00,,,0.00,Wunderground v.1.15,2013-03-01 23:20:00,
2013-03-01 17:25:00,63.5,20.5,30.12,North,349,3.0,7.0,19,0.00,,,0.00,Wunderground v.1.15,2013-03-01 23:25:00,
2013-03-01 17:35:00,63.1,20.1,30.13,North,357,2.0,4.0,19,0.00,,,0.00,Wunderground v.1.15,2013-03-01 23:35:00,
2013-03-01 17:40:00,62.9,20.0,30.13,NNW,337,2.0,2.0,19,0.00,,,0.00,Wunderground v.1.15,2013-03-01 23:40:00,
2013-03-01 17:50:00,62.6,18.4,30.14,NNW,346,3.0,6.0,18,0.00,,,0.00,Wunderground v.1.15,2013-03-01 23:50:00,
2013-03-01 17:55:00,62.3,15.5,30.14,NW,319,3.0,6.0,16,0.00,,,0.00,Wunderground v.1.15,2013-03-01 23:55:00,
2013-03-01 18:05:00,61.8,19.0,30.14,NNW,333,2.0,8.0,19,0.00,,,0.00,Wunderground v.1.15,2013-03-02 00:05:00,
2013-03-01 18:10:00,61.3,17.4,30.15,NNW,344,2.0,2.0,18,0.00,,,0.00,Wunderground v.1.15,2013-03-02 00:10:00,
2013-03-01 18:20:00,60.7,16.9,30.15,NNW,343,2.0,2.0,18,0.00,,,0.00,Wunderground v.1.15,2013-03-02 00:20:00,
2013-03-01 18:25:00,60.4,17.9,30.16,NNW,336,2.0,2.0,19,0.00,,,0.00,Wunderground v.1.15,2013-03-02 00:25:00,
2013-03-01 18:35:00,59.6,17.2,30.16,NW,311,2.0,10.0,19,0.00,,,0.00,Wunderground v.1.15,2013-03-02 00:35:00,
2013-03-01 18:40:00,59.3,18.2,30.16,NNW,340,1.0,1.0,20,0.00,,,0.00,Wunderground v.1.15,2013-03-02 00:40:00,
2013-03-01 18:50:00,58.6,17.6,30.17,NW,323,1.0,1.0,20,0.00,,,0.00,Wunderground v.1.15,2013-03-02 00:50:00,
2013-03-01 18:55:00,58.3,17.3,30.17,NNW,336,1.0,1.0,20,0.00,,,0.00,Wunderground v.1.15,2013-03-02 00:55:00,
2013-03-01 19:05:00,57.8,16.9,30.17,NNW,328,1.0,5.0,20,0.00,,,0.00,Wunderground v.1.15,2013-03-02 01:05:00,
2013-03-01 19:10:00,57.6,16.8,30.17,NW,320,1.0,1.0,20,0.00,,,0.00,Wunderground v.1.15,2013-03-02 01:10:00,
2013-03-01 19:20:00,57.2,16.4,30.18,NNW,332,1.0,1.0,20,0.00,,,0.00,Wunderground v.1.15,2013-03-02 01:20:00,
2013-03-01 19:25:00,56.9,17.3,30.18,NNW,332,1.0,1.0,21,0.00,,,0.00,Wunderground v.1.15,2013-03-02 01:25:00,
2013-03-01 19:35:00,56.3,16.8,30.19,NNW,336,0.0,0.0,21,0.00,,,0.00,Wunderground v.1.15,2013-03-02 01:35:00,
2013-03-01 19:40:00,55.9,17.6,30.19,NNW,336,0.0,0.0,22,0.00,,,0.00,Wunderground v.1.15,2013-03-02 01:40:00,
2013-03-01 19:50:00,55.0,17.8,30.20,NNW,336,0.0,0.0,23,0.00,,,0.00,Wunderground v.1.15,2013-03-02 01:50:00,
2013-03-01 19:55:00,54.2,17.1,30.20,NNW,336,0.0,0.0,23,0.00,,,0.00,Wunderground v.1.15,2013-03-02 01:55:00,
2013-03-01 20:05:00,52.9,18.0,30.19,NNW,336,0.0,0.0,25,0.00,,,0.00,Wunderground v.1.15,2013-03-02 02:05:00,
2013-03-01 20:10:00,52.3,19.3,30.20,NNW,336,0.0,0.0,27,0.00,,,0.00,Wunderground v.1.15,2013-03-02 02:10:00,
2013-03-01 20:20:00,51.1,19.1,30.20,NNW,339,0.0,0.0,28,0.00,,,0.00,Wunderground v.1.15,2013-03-02 02:20:00,
2013-03-01 20:25:00,50.4,20.1,30.21,NNW,339,0.0,0.0,30,0.00,,,0.00,Wunderground v.1.15,2013-03-02 02:25:00,
2013-03-01 20:35:00,49.2,20.6,30.22,NNW,339,0.0,0.0,32,0.00,,,0.00,Wunderground v.1.15,2013-03-02 02:35:00,
2013-03-01 20:40:00,48.5,21.4,30.22,NNW,339,0.0,0.0,34,0.00,,,0.00,Wunderground v.1.15,2013-03-02 02:40:00,
2013-03-01 20:50:00,47.4,22.4,30.23,NNW,339,0.0,0.0,37,0.00,,,0.00,Wunderground v.1.15,2013-03-02 02:50:00,
2013-03-01 20:55:00,47.1,24.0,30.24,NNW,339,0.0,0.0,40,0.00,,,0.00,Wunderground v.1.15,2013-03-02 02:55:00,
2013-03-01 21:05:00,46.2,23.8,30.23,NNW,339,0.0,0.0,41,0.00,,,0.00,Wunderground v.1.15,2013-03-02 03:05:00,
2013-03-01 21:10:00,46.0,24.7,30.24,NNW,339,0.0,0.0,43,0.00,,,0.00,Wunderground v.1.15,2013-03-02 03:10:00,
2013-03-01 21:20:00,45.1,24.5,30.24,NNW,339,0.0,0.0,44,0.00,,,0.00,Wunderground v.1.15,2013-03-02 03:20:00,
2013-03-01 21:25:00,44.5,25.0,30.25,North,349,0.0,0.0,46,0.00,,,0.00,Wunderground v.1.15,2013-03-02 03:25:00,
2013-03-01 21:35:00,46.1,24.3,30.26,North,0,1.0,2.0,42,0.00,,,0.00,Wunderground v.1.15,2013-03-02 03:35:00,
2013-03-01 21:40:00,47.1,23.4,30.26,North,0,1.0,2.0,39,0.00,,,0.00,Wunderground v.1.15,2013-03-02 03:40:00,
2013-03-01 21:50:00,48.5,23.4,30.26,NNW,344,2.0,2.0,37,0.00,,,0.00,Wunderground v.1.15,2013-03-02 03:50:00,
2013-03-01 21:55:00,49.1,23.9,30.26,North,0,3.0,3.0,37,0.00,,,0.00,Wunderground v.1.15,2013-03-02 03:55:00,
2013-03-01 22:05:00,49.5,24.3,30.24,North,0,2.0,3.0,37,0.00,,,0.00,Wunderground v.1.15,2013-03-02 04:05:00,
2013-03-01 22:10:00,49.6,24.4,30.24,North,0,2.0,2.0,37,0.00,,,0.00,Wunderground v.1.15,2013-03-02 04:10:00,
2013-03-01 22:20:00,49.5,24.9,30.25,North,357,2.0,2.0,38,0.00,,,0.00,Wunderground v.1.15,2013-03-02 04:20:00,
2013-03-01 22:25:00,49.2,25.3,30.25,North,357,1.0,2.0,39,0.00,,,0.00,Wunderground v.1.15,2013-03-02 04:25:00,
2013-03-01 22:35:00,48.9,25.6,30.24,North,0,1.0,2.0,40,0.00,,,0.00,Wunderground v.1.15,2013-03-02 04:35:00,
2013-03-01 22:40:00,48.6,25.3,30.25,North,0,1.0,1.0,40,0.00,,,0.00,Wunderground v.1.15,2013-03-02 04:40:00,
2013-03-01 22:50:00,48.2,26.2,30.25,North,0,1.0,1.0,42,0.00,,,0.00,Wunderground v.1.15,2013-03-02 04:50:00,
2013-03-01 22:55:00,48.0,26.0,30.25,North,0,1.0,1.0,42,0.00,,,0.00,Wunderground v.1.15,2013-03-02 04:55:00,
2013-03-01 23:00:00,47.9,26.5,30.25,North,359,1.0,1.0,43,0.00,,,0.00,Wunderground v.1.15,2013-03-02 05:00:00,
2013-03-01 23:05:00,47.7,26.3,30.25,North,0,1.0,2.0,43,0.00,,,0.00,Wunderground v.1.15,2013-03-02 05:05:00,
2013-03-01 23:10:00,47.6,26.2,30.25,North,0,1.0,1.0,43,0.00,,,0.00,Wunderground v.1.15,2013-03-02 05:10:00,
2013-03-01 23:20:00,47.6,26.7,30.25,North,0,2.0,2.0,44,0.00,,,0.00,Wunderground v.1.15,2013-03-02 05:20:00,
2013-03-01 23:25:00,47.4,26.6,30.25,North,0,1.0,2.0,44,0.00,,,0.00,Wunderground v.1.15,2013-03-02 05:25:00,
2013-03-01 23:30:00,47.1,26.3,30.25,North,0,0.0,0.0,44,0.00,,,0.00,Wunderground v.1.15,2013-03-02 05:30:00,
2013-03-01 23:35:00,46.8,26.6,30.26,North,0,0.0,0.0,45,0.00,,,0.00,Wunderground v.1.15,2013-03-02 05:35:00,
2013-03-01 23:40:00,46.5,26.3,30.26,North,0,0.0,0.0,45,0.00,,,0.00,Wunderground v.1.15,2013-03-02 05:40:00,
2013-03-01 23:50:00,46.0,26.9,30.26,North,0,0.0,0.0,47,0.00,,,0.00,Wunderground v.1.15,2013-03-02 05:50:00,
2013-03-01 23:55:00,45.8,26.7,30.26,North,0,0.0,0.0,47,0.00,,,0.00,Wunderground v.1.15,2013-03-02 05:55:00,